Weather in Tenginka

Russia / Krasnodar Krai     44°19′25″N   38°46′54″E
temp.,
°C
wind,
m/s
gust,
m/s
humid.,
%
clouds,
%
prec.,
mm/h
press.,
hPa
HPBL,
m
13 april, tue
tue1300:00+9sse3389100 0.3 1024291
03:00+9s228460 0.3 1023376
06:00+9nw118578 0.1 1023188
09:00+10nw2279100 0.1 1023285
12:00+10w3378100 0.0 1023262
15:00+10w4378100 0.0 1023325
18:00+10wnw33825 0.0 1021159
21:00+9nw2385100 0.0 102162
14 april, wed
wed1400:00+9nne0186100 0.0 102031
03:00+9se338899 0.0 1020286
06:00+9se4586100 0.0 1020428
09:00+9sse3486100 0.1 1020445
12:00+9sse458850 0.0 1019407
15:00+9sse239063 0.0 1019234
18:00+8e1192100 0.0 1018100
21:00+10ene2283100 0.0 101844
15 april, thu
thu1500:00+10e228072 0.0 101723
03:00+10e228119 0.0 101633
06:00+10ene3381100 0.0 101636
09:00+12ese1272100 0.0 1016112
12:00+12wsw237161 0.0 1017195
15:00+11e017999 0.0 1017153
18:00+12wsw237575 0.1 1017108
21:00
16 april, fri
fri1600:00+10wnw1189100 0.0 101716
03:00+10nw118874 0.0 101717
06:00+10nw2278100 0.0 101618
09:00+10nw3477100 0.0 1018202
12:00+10nw2379100 0.6 1018169
15:00+10ne338775 4.1 1019143
18:00+10wnw448619 0.0 1019234
21:00+10wnw338635 0.0 1020157
17 april, sat
sat1700:00+9w238632 0.0 1021330
03:00+8nne118652 0.0 1021106
06:00+8ne2284100 0.0 102182
09:00+10nnw1272100 0.0 1021166
12:00+10wnw3371100 0.0 1021254
15:00+11wnw4472100 0.0 1020183
18:00+11wnw3373100 0.0 101976
21:00+11e238125 0.0 102027